Temp
47 46 46 46 46 45 46 47 49 56 50 50 51 51 52 48 48 48 47 46 45 43
47 48 47 47 46 46 46 52 50 53 49 49 49 49 48 48 48 52 53 49 48 44
48 48 47 47 47 47 47 48 50 50 49 49 48 48 47 46 47 49 47 47 46 44
48 48 48 47 48 48 48 48 50 50 49 48 47 46 46 47 48 47 46 46 45 45
48 48 47 47 49 49 49 49 50 50 49 49 47 45 46 47 48 47 47 47 46 46
47 47 47 48 48 50 50 49 49 49 49 49 48 46 46 47 48 47 46 46 45 45
47 48 48 48 49 50 50 49 48 49 49 49 48 48 48 48 46 46 47 46 46 46
49 48 48 49 50 50 50 50 50 49 48 48 48 50 47 47 46 44 45 45 47 47
50 50 50 49 50 50 50 48 48 48 48 47 50 51 52 51 45 45 44 44 45 45
50 51 51 50 49 49 47 47 47 47 47 47 46 49 49 51 46 45 43 43 43 45
52 52 50 48 48 47 46 46 45 46 47 46 48 49 48 49 50 47 48 44 47 44
52 50 49 47 46 45 44 44 45 47 47 46 47 48 48 47 50 47 48 47 45 46
52 50 47 47 46 45 45 47 48 48 47 48 47 49 47 46 45 44 46 44 44 47
50 49 48 46 44 45 45 46 45 46 46 47 47 48 46 45 44 43 42 42 43 43
MSLP
1021.89 1022.09 1022.19 1022.14 1022.04 1021.88 1021.70 1021.49 1021.23 1020.72 1020.92 1020.71 1020.38 1020.15 1019.99 1020.11 1020.14 1020.07 1020.06 1020.20 1020.36 1020.49
1021.86 1021.98 1022.09 1022.04 1022.02 1021.93 1021.70 1021.43 1021.31 1020.99 1021.21 1021.06 1020.79 1020.61 1020.41 1020.40 1020.32 1020.22 1020.34 1020.42 1020.37 1020.48
1021.73 1021.91 1022.03 1022.03 1022.04 1021.93 1021.74 1021.59 1021.47 1021.46 1021.50 1021.36 1021.22 1021.01 1020.84 1020.83 1020.72 1020.65 1020.68 1020.67 1020.66 1020.69
1021.59 1021.83 1021.95 1022.04 1021.98 1021.86 1021.78 1021.71 1021.68 1021.73 1021.77 1021.65 1021.60 1021.47 1021.26 1021.12 1020.97 1020.99 1020.98 1020.89 1020.82 1020.74
1021.53 1021.72 1021.84 1021.96 1021.84 1021.62 1021.71 1021.75 1021.52 1021.69 1021.87 1021.87 1021.80 1021.74 1021.58 1021.37 1021.19 1021.13 1021.08 1020.98 1020.89 1020.76
1021.50 1021.65 1021.74 1021.75 1021.68 1021.58 1021.63 1021.74 1021.64 1021.72 1021.85 1021.89 1021.87 1021.82 1021.69 1021.53 1021.33 1021.22 1021.10 1020.96 1020.91 1020.72
1021.30 1021.37 1021.45 1021.52 1021.48 1021.44 1021.55 1021.68 1021.83 1021.71 1021.83 1021.86 1021.82 1021.74 1021.61 1021.46 1021.25 1021.10 1020.97 1020.87 1020.65 1020.34
1020.85 1021.08 1021.26 1021.29 1021.27 1021.37 1021.52 1021.53 1021.67 1021.78 1021.81 1021.82 1021.70 1021.58 1021.41 1021.27 1021.16 1021.09 1020.83 1020.51 1020.35 1020.06
1020.64 1020.84 1020.98 1021.12 1021.18 1021.26 1021.38 1021.58 1021.69 1021.75 1021.71 1021.66 1021.50 1021.24 1021.16 1021.04 1020.97 1020.84 1020.75 1020.57 1020.04 1019.78
1020.37 1020.62 1020.70 1020.96 1021.16 1021.26 1021.45 1021.51 1021.60 1021.66 1021.60 1021.47 1021.25 1021.01 1020.82 1020.70 1020.71 1020.57 1020.47 1020.17 1019.86 1019.55
1020.15 1020.34 1020.65 1020.97 1021.22 1021.20 1021.37 1021.49 1021.57 1021.49 1021.34 1021.19 1020.85 1020.69 1020.45 1020.26 1020.28 1020.27 1019.86 1019.50 1019.66 1019.55
1019.93 1020.29 1020.62 1021.02 1021.21 1021.21 1021.34 1021.41 1021.39 1021.28 1021.13 1021.00 1020.47 1020.18 1019.96 1019.94 1019.85 1019.65 1019.20 1018.97 1019.27 1018.99
1019.70 1020.06 1020.62 1020.77 1021.05 1021.07 1021.08 1021.14 1021.13 1020.98 1020.81 1020.63 1020.26 1019.59 1019.38 1019.46 1019.40 1019.39 1019.02 1018.77 1018.64 1018.48
1019.63 1019.89 1020.19 1020.62 1020.84 1020.83 1021.01 1021.06 1021.05 1020.92 1020.46 1020.18 1019.78 1019.25 1019.05 1018.87 1018.88 1019.02 1019.11 1019.02 1018.69 1018.31
Wind_Speed
4 2 1 1 1 2 1 2 4 3 4 5 6 5 3 2 3 4 5 7 5 3
4 2 1 1 0 1 2 2 4 4 5 5 6 6 5 4 5 4 4 5 5 4
5 3 2 1 1 1 2 3 6 6 5 5 6 6 6 4 5 6 3 3 5 3
4 3 3 3 3 3 1 2 3 4 3 5 5 5 5 4 4 6 3 2 3 2
3 3 3 4 5 4 3 1 4 4 3 4 4 4 4 4 3 4 3 2 3 4
4 4 5 5 4 4 4 2 3 4 3 3 2 2 3 3 3 3 2 4 5 6
6 7 5 5 5 4 5 4 3 4 3 1 0 0 1 3 4 5 4 4 5 7
6 5 4 4 3 3 3 5 5 4 3 3 2 3 3 2 3 4 7 6 6 6
6 5 6 4 3 2 4 5 3 3 5 5 4 7 8 5 4 4 4 6 7 6
6 5 5 4 3 3 3 3 4 4 4 5 6 9 11 9 4 5 6 6 5 6
6 5 5 4 5 2 2 4 3 5 5 6 6 10 12 11 6 4 9 7 3 6
6 5 6 6 5 3 2 2 4 4 6 7 8 11 14 8 6 6 10 6 1 6
6 6 7 6 5 3 3 4 3 6 6 7 9 13 12 6 4 6 5 6 5 8
6 7 7 5 3 3 3 4 5 6 6 7 7 9 10 7 2 3 3 3 5 5
Wind_Direction
138 114 94 322 340 354 8 322 333 94 61 31 32 13 28 33 24 80 83 90 93 82
151 131 287 330 252 301 320 15 15 59 77 40 45 28 38 33 36 56 40 43 74 81
164 183 257 215 235 290 344 34 60 68 49 43 45 29 51 36 36 59 29 55 62 44
189 218 242 213 254 266 320 89 110 94 68 56 44 20 45 45 65 76 57 33 56 51
201 238 214 224 242 231 220 188 148 124 94 74 50 27 36 40 48 63 40 301 299 280
199 203 232 241 249 217 198 185 190 151 154 125 90 37 16 8 10 8 312 289 278 281
198 209 223 232 231 195 190 177 235 189 186 195 200 13 349 352 352 336 319 308 288 277
202 202 220 236 207 177 204 189 196 197 220 244 268 263 262 297 310 313 317 319 305 293
177 192 208 202 227 118 172 180 176 215 228 247 261 268 264 249 278 297 291 301 308 310
171 205 195 201 203 185 203 190 216 236 241 264 263 261 267 264 269 286 294 277 283 308
173 191 162 180 205 196 189 212 234 263 266 266 269 264 267 266 258 257 266 251 279 285
175 167 173 189 206 212 218 243 250 258 277 272 278 267 272 284 277 264 266 288 248 269
172 168 187 189 199 221 217 245 277 281 263 269 275 285 277 257 251 273 292 314 291 276
171 172 184 185 210 225 253 276 286 290 295 281 263 283 298 286 217 239 298 299 319 320